CAPE
519 557 1096 1309 1351 1770 1934 1976 2086 2077 2557 3257 3399 3255 3194 3227 3111 3037 2529 2069 1865 2130 2526 1970 1585 1805 1837 1696 1246 983 1572 1197 1417
1037 891 1125 1485 1790 2153 2499 2371 2429 2439 2573 3090 3325 3189 3274 3126 2993 2897 2691 2550 2762 2289 1589 1113 1506 1885 1850 1947 1753 1758 1605 1754 1282
1888 1968 2076 2142 2165 2267 2139 2279 2356 2504 2684 2916 3105 2997 2994 2912 2932 2854 2780 2720 2440 1441 1283 1239 1604 1706 2040 2173 1870 1968 1738 1473 1512
1973 1947 2080 2358 2486 2375 2354 2460 2494 2465 2575 2987 2832 2894 2945 2796 2455 2503 2465 1961 892 1548 1654 1727 1669 1542 1738 1940 2051 1881 1802 1763 1527
2106 1892 1872 2302 2648 2787 2871 2921 3072 2882 2836 2693 2668 2843 2510 1696 1487 1533 1366 1559 1619 1785 1442 1473 1822 2174 2178 2032 1999 2125 1947 1844 1833
1433 1238 1075 935 859 837 770 742 964 1433 1669 1499 1385 1283 603 632 513 173 15 26 140 27 38 129 217 484 1368 1569 1841 1868 2047 2003 2042
1294 1055 789 702 603 468 325 349 376 307 279 317 272 96 11 0 36 6 0 31 92 114 128 100 58 68 171 524 1183 1764 2004 2020 1980
1144 883 731 645 489 393 327 262 154 54 17 2 2 13 5 5 118 283 143 70 127 238 187 91 94 106 83 124 182 354 1696 1716 1841
1153 908 777 626 491 325 182 92 14 0 0 0 0 0 0 0 1 69 96 110 80 149 153 151 168 169 187 119 41 81 367 636 1691
1206 987 805 481 207 60 0 0 0 0 0 0 0 0 0 0 0 0 0 1 54 100 121 188 193 152 112 151 187 91 161 417 513
1174 1014 617 224 11 0 0 0 0 0 0 0 0 0 0 0 0 0 9 5 51 106 192 120 89 76 130 150 274 119 67 223 509
1054 640 291 57 0 0 0 0 0 0 0 0 0 0 0 1 0 2 27 44 79 176 204 108 76 69 74 53 241 208 86 214 455
170 52 0 0 0 0 0 0 0 0 0 0 0 1 14 22 10 21 14 44 114 179 117 104 29 15 65 25 9 46 2 56 206
0 0 0 0 0 0 0 0 0 0 2 4 7 12 20 28 16 8 6 6 34 87 109 93 59 6 13 27 63 96 75 2 293
0 0 0 0 0 1 1 1 2 7 17 22 35 34 33 30 23 11 12 16 30 55 60 36 15 10 9 14 32 51 70 28 6
0 0 0 0 0 1 5 8 23 17 11 9 15 28 18 5 8 16 15 16 10 9 10 21 15 15 26 21 26 25 13 43 15
0 0 0 3 1 1 3 1 7 11 22 27 29 41 32 12 9 18 5 16 21 20 31 24 31 16 17 10 10 33 33 38 78
0 1 0 1 5 2 4 14 2 11 31 22 4 6 5 0 3 9 7 5 26 22 14 17 21 12 7 32 24 22 2 0 1
0 0 0 3 8 8 12 1 0 0 11 13 3 1 2 3 14 20 13 6 0 4 14 10 8 4 1 0 0 0 0 0 0
0 1 2 5 8 15 10 14 7 9 0 0 1 1 1 1 0 0 3 0 5 6 6 10 1 0 0 0 0 0 0 0 0
CIN
-27 -24 -7 -5 -3 -4 -14 -17 -33 -18 -23 -31 -24 -26 -16 -5 -3 -1 -1 -6 -24 -20 -11 -3 -4 -7 -2 -13 -29 -42 -6 -18 -2
-37 -19 -9 -5 -5 -3 -13 -5 -7 -12 -6 -17 -12 -10 -6 -6 -7 -8 -3 -1 -1 -6 -22 -36 -19 -1 -1 -2 -8 -1 -2 -1 -9
-87 -94 -83 -65 -23 -25 -36 -4 -3 -2 -2 -3 -3 -4 -3 -6 -3 -11 -2 -1 -6 -33 -35 -27 -1 -11 -3 -1 -3 -1 -2 -9 -9
-95 -86 -60 -32 -20 -15 -10 -6 -6 -11 -4 -2 -6 -2 -5 -5 -12 -1 -2 -6 -64 -21 -8 -3 -2 -12 -6 -7 -3 -4 -5 -3 -6
-59 -87 -90 -47 -18 -11 -9 -11 -9 -12 -10 -13 -3 -2 -9 -35 -39 -30 -7 -3 -1 -1 -1 0 -1 -1 -1 0 0 -2 -6 -6 -3
-144 -160 -164 -178 -190 -200 -204 -197 -170 -94 -56 -63 -47 -45 -71 -77 -79 -86 -110 -128 -82 -146 -154 -104 -70 -27 -3 -10 -7 -3 -3 -4 -5
-143 -160 -192 -196 -213 -240 -255 -249 -232 -217 -199 -168 -155 -158 -70 0 -148 -58 0 -67 -128 -114 -99 -94 -113 -97 -38 -9 -1 -4 -5 -3 -4
-121 -143 -145 -169 -194 -202 -214 -215 -218 -227 -233 -77 -50 -173 -43 -38 -127 -88 -105 -116 -67 -26 -35 -78 -80 -71 -76 -33 -15 -11 -1 -3 -5
-45 -60 -69 -97 -115 -146 -166 -182 -204 0 0 0 0 0 0 0 -1 -119 -128 -122 -137 -91 -92 -93 -81 -101 -96 -92 -120 -86 -50 -29 0
-3 -6 -29 -32 -88 -146 0 0 0 0 0 0 0 0 0 0 0 0 0 -56 -146 -120 -113 -92 -107 -117 -129 -100 -51 -88 -84 -49 -30
-6 -3 -3 -41 -72 0 0 0 0 0 0 0 0 0 0 0 0 0 -134 -177 -109 -76 -57 -123 -150 -162 -117 -78 -21 -32 -86 -56 -13
-3 -2 -9 -54 0 0 0 0 0 0 0 0 0 0 0 -2 -1 -88 -71 -70 -50 -15 -15 -58 -75 -83 -58 -55 0 -6 -48 -38 0
-27 -58 0 0 0 0 0 0 0 0 0 0 0 -2 -2 -3 -2 -120 -142 -107 -36 -12 -19 -30 -98 -33 -52 -12 -2 -53 -8 -61 -8
0 0 0 0 0 0 0 0 0 0 -2 -2 -2 -2 -2 -3 -3 -1 -2 -84 -163 -92 -54 -57 -80 -5 -51 -136 -53 -29 -43 -11 -5
0 0 0 0 0 -2 -2 -3 -2 -2 -2 -3 -4 -2 -2 -2 -2 -2 -2 -1 -201 -139 -124 -145 -97 -4 -4 -2 -225 -121 -98 -139 -17
0 0 0 0 0 -1 -4 -3 -7 -4 -22 -27 -16 -8 -7 -3 -1 -1 -1 -2 -6 -3 -23 -2 -3 -2 -1 -1 -2 -5 -23 -116 -146
0 0 0 -2 -2 -1 -1 -2 -2 -3 -2 -4 -5 -1 -1 -3 -5 -3 -2 -6 -2 -2 -2 -3 -1 -4 -2 -1 -2 -4 -2 -3 -90
0 -1 -2 -1 -1 0 -1 -1 -13 -2 -2 -2 -3 -1 -1 -13 -16 -9 -7 -7 -4 -4 -9 -5 -2 -8 -5 -2 -3 -2 -71 0 -89
0 0 0 -1 -1 -1 0 0 0 0 0 0 0 0 0 0 -2 -7 -2 -13 -26 -19 -6 -9 -17 -18 -3 -1 0 0 0 0 0
0 -1 -1 -1 -2 -1 -1 0 0 0 0 0 0 0 0 0 0 0 -2 -1 -6 -3 -3 -7 -15 -1 -10 0 0 0 0 0 0
Wind_Speed
10 16 14 12 11 10 10 9 9 11 9 10 12 12 11 9 7 10 8 8 8 2 4 11 24 10 4 6 3 3 5 0 2
8 8 5 6 7 6 5 6 6 7 7 6 6 6 6 5 5 7 8 5 4 4 2 2 17 5 10 8 2 3 0 1 2
6 6 6 4 4 5 5 5 6 6 5 5 5 5 6 5 6 6 5 5 5 6 3 2 10 8 3 10 8 5 8 8 4
5 7 7 7 7 7 7 9 9 9 7 9 9 9 11 11 9 10 10 9 9 11 12 10 9 6 6 8 19 13 11 9 13
6 7 8 8 8 8 8 10 11 12 11 11 12 11 11 12 13 15 13 10 13 15 18 18 17 14 11 12 12 18 15 10 10
6 6 7 8 8 8 9 10 11 12 12 13 13 13 14 15 17 17 19 20 19 22 23 25 25 25 22 19 17 15 12 14 13
5 6 6 7 7 8 9 10 11 12 13 14 16 18 20 21 21 23 25 28 28 28 27 27 27 29 29 29 26 21 18 13 11
7 7 7 8 8 9 9 11 12 14 16 18 20 22 24 25 27 29 30 30 30 29 29 30 30 29 29 30 29 27 24 21 20
10 9 9 10 10 10 11 12 15 17 20 21 23 25 27 29 29 30 32 33 33 34 34 32 30 28 29 28 29 30 30 32 31
11 10 12 11 11 12 14 16 19 21 21 25 27 29 31 32 32 33 33 33 33 32 31 30 29 29 29 30 30 32 33 29 32
11 12 11 13 15 16 18 20 23 26 27 29 31 32 33 34 34 35 34 34 35 34 31 28 28 30 30 31 32 33 35 33 32
10 12 14 16 18 20 23 25 28 30 31 32 34 35 36 36 36 37 38 39 37 35 33 29 27 28 30 32 34 33 32 31 37
15 15 18 21 23 27 29 31 33 34 35 36 38 39 39 38 39 41 41 41 39 36 33 30 27 29 29 29 31 31 32 31 34
21 23 25 27 28 31 33 34 36 37 38 39 41 42 42 42 42 43 42 42 40 38 35 33 30 32 33 35 33 30 28 28 30
26 28 30 32 33 34 35 37 38 39 39 39 40 41 41 42 43 43 44 44 43 41 39 36 33 34 37 34 29 22 19 20 24
31 33 34 35 36 37 36 37 38 40 40 41 40 41 41 42 42 42 42 43 43 43 39 36 34 35 38 40 36 29 20 17 20
34 34 35 35 37 38 40 40 40 41 39 39 39 37 35 38 39 39 40 41 40 39 37 37 38 40 40 38 37 35 28 29 25
33 34 35 35 36 37 38 39 40 41 39 38 38 39 38 35 31 34 38 39 40 40 39 38 41 40 40 38 36 32 29 35 36
32 33 34 34 35 36 37 38 39 39 39 37 37 37 36 35 34 29 32 40 46 44 39 39 41 37 35 37 40 47 49 51 44
32 32 33 34 35 35 37 38 39 36 34 36 37 37 36 35 33 32 34 44 46 47 45 41 36 37 34 33 36 40 45 48 51
Wind_Direction
100 141 134 130 128 119 106 96 98 108 95 105 132 147 149 146 125 160 154 151 176 122 74 18 306 359 30 360 1 152 170 141 120
50 81 78 91 98 79 67 87 90 106 97 77 101 107 107 81 99 150 174 67 61 35 44 196 222 350 345 350 7 159 299 307 193
26 25 22 26 42 62 87 80 71 80 63 58 60 45 37 35 23 26 32 37 35 33 20 199 202 203 349 332 334 329 320 312 282
40 48 33 22 8 18 26 13 14 16 26 25 19 11 360 358 11 10 6 12 15 6 5 6 358 342 337 332 316 318 312 300 302
21 25 29 31 30 28 21 12 6 11 17 19 16 18 14 2 357 354 353 359 355 354 349 347 344 338 328 328 325 315 305 290 289
26 33 38 38 36 31 26 19 16 15 17 14 13 7 359 351 343 341 335 334 336 335 335 332 329 327 327 324 318 313 303 289 279
348 346 350 358 1 0 0 0 2 3 359 356 350 345 339 333 330 327 324 321 320 321 324 325 323 320 317 315 315 314 308 294 271
316 316 322 330 333 337 341 340 339 338 337 335 333 331 326 322 320 318 318 318 317 317 317 316 316 315 313 311 310 309 308 303 296
304 305 315 316 322 327 328 328 326 325 324 325 324 322 320 319 318 316 316 315 313 312 312 313 313 313 311 309 307 305 303 300 296
301 305 310 315 320 322 323 323 322 320 321 320 318 318 317 317 316 315 315 314 314 315 314 315 315 314 312 308 305 303 300 299 297
307 312 316 317 318 318 319 319 319 317 315 315 314 314 314 314 314 313 312 312 312 313 313 314 315 314 311 308 305 301 297 295 295
327 323 320 317 316 316 316 314 313 313 312 312 312 312 312 312 311 310 309 307 308 308 310 310 311 312 310 307 303 302 300 297 291
326 324 320 317 317 315 314 313 312 311 310 310 310 310 310 310 309 306 305 304 305 305 307 306 306 306 305 306 305 301 299 295 291
325 321 318 317 315 313 312 313 312 310 309 309 309 308 307 307 306 304 304 303 302 302 303 303 304 303 303 302 302 301 298 295 290
321 319 317 315 314 313 314 313 312 311 310 311 311 309 308 307 307 305 303 300 300 299 301 302 303 302 301 302 302 293 287 284 284
319 318 317 317 315 315 315 316 316 313 313 313 312 311 308 308 307 305 303 299 296 296 298 300 302 300 299 298 301 301 295 275 280
320 319 319 319 318 316 315 316 315 314 315 315 314 314 315 314 311 308 304 299 297 294 296 298 298 296 296 298 297 297 301 299 303
324 323 322 322 321 319 319 320 318 318 317 318 314 314 315 317 316 313 307 300 294 291 293 296 293 295 297 299 298 297 297 293 292
329 328 327 327 326 324 324 323 321 318 318 320 320 318 318 317 317 318 313 301 288 288 296 297 295 298 299 298 294 288 283 279 282
332 333 332 331 330 329 328 326 324 323 323 320 319 318 316 317 316 315 311 297 290 288 291 298 301 301 298 296 297 295 288 281 274